Regional Weather Roundup
Issued by NWS

Home | Current Version | Previous Version | Text Only | Print | Product List | Glossary Off
Versions: 1 2 3 4 5 6 7 8 9 10 11 12 13 14 15 16 17 18 19 20 21 22 23 24 25 26 27 28 29 30 31 32 33 34 35 36 37 38 39 40 41 42 43 44 45 46 47 48 49 50

000
ASUS43 KDMX 280407
RWRIA

WEATHER ROUNDUP FOR IOWA
NATIONAL WEATHER SERVICE DES MOINES IA
1100 PM CDT MON JUL 27 2015

NOTE: "FAIR" INDICATES FEW OR NO CLOUDS BELOW 12,000 FEET WITH NO
SIGNIFICANT WEATHER AND/OR OBSTRUCTIONS TO VISIBILITY.

* - THESE STATIONS ARE NOT NWS STATIONS...THUS NOT UNDER NWS
QUALITY CONTROL.  THEY ALSO DO NOT REPORT WEATHER SUCH
AS PRECIPITATION OR FOG.

IAZ001>003-012>014-020>022-031>034-043>046-280500-
   NORTHWEST IOWA

CITY           SKY/WX    TMP DP  RH WIND       PRES   REMARKS
CARROLL *      CLOUDY    73  70  88 SE9       29.89S
CHEROKEE *     PTCLDY    73  68  83 S7        29.87S
DENISON *      MOCLDY    73  70  88 SE14G21   29.85S
LE MARS *      CLEAR     75  70  83 VRB7      29.85R
ORANGE CITY *  CLEAR     72  68  88 SE5       29.86R
SHELDON *      PTCLDY    73  68  83 SE15G21   29.86R
SIOUX CITY     PTCLDY    76  69  79 SE12      29.83R
SPENCER        CLEAR     73  67  81 SE10      29.89R
STORM LAKE *   CLEAR     72  68  88 SE10      29.90R
$$

IAZ055>058-069>071-079>083-090>094-280500-
   SOUTHWEST IOWA

CITY           SKY/WX    TMP DP  RH WIND       PRES   REMARKS
ATLANTIC *     CLOUDY    75  70  83 S8G15     29.89S
AUDUBON *      CLEAR     73  70  88 SE8       29.91S
CLARINDA *     CLEAR     77  70  78 S6G14     29.91S
COUNCIL BLFS * PTCLDY    75  72  88 SE14      29.87R
CRESTON *      CLEAR     73  70  88 SE13G21   29.92S
HARLAN  *      CLEAR     75  75 100 S10G17    29.91F
LAMONI           N/A     75  71  87 SE9       29.92F
RED OAK *      CLEAR     75  72  88 S7        29.89S
SHENANDOAH *   CLEAR     77  72  83 SE12G18   29.88R
$$

IAZ047>049-059>061-072>074-084-280500-
   CENTRAL IOWA

CITY           SKY/WX    TMP DP  RH WIND       PRES   REMARKS
AMES           CLEAR     70  68  93 SE5       29.92S
ANKENY *       CLOUDY    72  70  94 SE3       29.91F
CHARITON *     CLEAR     75  72  88 SE12      29.92F
DES MOINES     PTCLDY    74  69  85 SE8       29.91S
GRINNELL*      CLEAR     72  70  94 SE8       29.94F
KNOXVILLE *    MOCLDY    73  70  88 SE8       29.91F
MARSHALLTOWN     N/A     71  69  93 SE8       29.93S
PELLA *        CLEAR     72  72 100 SE6       29.93F
PERRY *        MOCLDY    72  70  94 SE5       29.91S
$$

IAZ004>006-015-016-023>025-035-036-280500-
   NORTH CENTRAL IOWA

CITY           SKY/WX    TMP DP  RH WIND       PRES   REMARKS
ALGONA *       CLEAR     72  68  88 SE10G16   29.93R
CLARION *      CLEAR     70  68  94 SE6       29.94R
ESTHERVILLE    CLEAR     70  67  90 SE12      29.91R
FORT DODGE *   CLEAR     70  64  83 SE5       29.93R
MASON CITY     PTCLDY    71  70  96 SE6       29.96S
FOREST CITY *  CLEAR     72  68  88 SE9       29.95R
IOWA FALLS *     N/A     70  68  94 E5        29.95S
$$

IAZ007>011-017>019-026>030-037>042-050>054-066-280500-
   NORTHEAST IOWA

CITY           SKY/WX    TMP DP  RH WIND       PRES   REMARKS
CEDAR RAPIDS   PTCLDY    73  73 100 SE5       29.95S
CHARLES CITY * PTCLDY    73  73 100 SE6       29.96S
CLINTON *      MOCLDY    73  70  88 E6        29.99S
DECORAH *      CLEAR     72  70  94 SE5       29.97S
DUBUQUE        MOCLDY    75  71  87 SE7       29.98F
MONTICELLO *   CLEAR     73  72  94 E5        29.96F
OELWEIN *      CLEAR     73  72  94 SE7       29.97S
WATERLOO       CLEAR     73  72  96 SE7       29.93F
$$

IAZ064-065-067-068-078-280500-
   EAST CENTRAL IOWA

CITY           SKY/WX    TMP DP  RH WIND       PRES   REMARKS
DAVENPORT      MOCLDY    75  72  90 E8        29.95F
IOWA CITY      MOCLDY    73  72  96 CALM      29.95F
MT. PLEASANT * MOCLDY    77  73  88 SE3       29.94S
MUSCATINE *    CLEAR     73  72  94 CALM      29.94F
QUAD CITIES    CLOUDY    75  72  90 E7        29.94F
$$

IAZ062-063-075>077-085>089-095>099-280500-
   SOUTHEAST IOWA

CITY           SKY/WX    TMP DP  RH WIND       PRES   REMARKS
BURLINGTON     CLOUDY    76  74  93 SE5       29.93F
FAIRFIELD *    CLEAR     73  72  94 E5        29.93F
FORT MADISON * CLEAR     73  73 100 E5        29.94F
KEOKUK *       CLEAR     75  75 100 SE5       29.92F
OSKALOOSA *    MOCLDY    72  70  94 CALM      29.93F
CENTERVILLE *  CLEAR     73  73 100 SE9       29.95F
OTTUMWA        MOCLDY    72  71  97 SE6       29.92S
WASHINGTON *   CLEAR     75  73  94 E3        29.95F
$$

ABBREVIATIONS USED IN REMARKS
   TC - TEMPERATURES IN CELSIUS
  WCI - WIND CHILL INDEX
   HX - HEAT INDEX
  VSB - VISIBILITY
$$




USA.gov is the U.S. government's official web portal to all federal, state and local government web resources and services.